BAW1280 EHRD-EGLL

Flight info

Callsign BAW1280
Flight time 0h 42m
Altitude 24000
Route SOMEL2A ABNED L980 LOGAN LOGAN2H
Aircraft A20N/M-SDE2E3FGHIRWXY/LB1

Departure

Time 2026-05-05 18:08
Airport Rotterdam The Hague Airport (EHRD)

Arrival

Time 2026-05-05 18:51
Airport London Heathrow Airport (EGLL)
Time Latitude Longitude Altitude Speed Heading
2026-05-05 17:57 51.95112 4.43489 -6 ft 0 kts 327°
2026-05-05 18:04 51.95148 4.43451 -5 ft 26 kts 327°
2026-05-05 18:04 51.95203 4.43302 -6 ft 12 kts 242°
2026-05-05 18:05 51.95137 4.43115 -5 ft 24 kts 241°
2026-05-05 18:05 51.95115 4.43033 -4 ft 0 kts 255°
2026-05-05 18:07 51.95113 4.43014 -4 ft 13 kts 264°
2026-05-05 18:07 51.95179 4.42866 -4 ft 22 kts 329°
2026-05-05 18:07 51.95235 4.42896 -3 ft 4 kts 54°
2026-05-05 18:08 51.95284 4.43012 -4 ft 44 kts 55°
2026-05-05 18:08 51.95628 4.43872 -6 ft 136 kts 57°
2026-05-05 18:08 51.96195 4.45279 955 ft 149 kts 54°
2026-05-05 18:08 51.96790 4.46720 2166 ft 156 kts 53°
2026-05-05 18:09 51.97412 4.48281 3063 ft 186 kts 57°
2026-05-05 18:09 51.98598 4.49831 2991 ft 260 kts 19°
2026-05-05 18:09 52.00551 4.49881 2964 ft 272 kts 344°
2026-05-05 18:09 52.02070 4.48153 3025 ft 277 kts 309°
2026-05-05 18:10 52.02731 4.45253 3032 ft 284 kts 275°
2026-05-05 18:10 52.02298 4.42150 3032 ft 289 kts 241°
2026-05-05 18:10 52.00891 4.39879 3026 ft 290 kts 206°
2026-05-05 18:10 51.98986 4.38887 3016 ft 289 kts 196°
2026-05-05 18:11 51.97310 4.37161 3007 ft 288 kts 231°
2026-05-05 18:11 51.96434 4.34285 3014 ft 288 kts 256°
2026-05-05 18:11 51.95972 4.31147 2998 ft 283 kts 262°
2026-05-05 18:11 51.95634 4.28050 2998 ft 284 kts 264°
2026-05-05 18:12 51.95331 4.24577 3003 ft 344 kts 265°
2026-05-05 18:12 51.95008 4.20432 3001 ft 371 kts 265°
2026-05-05 18:12 51.94692 4.16352 2995 ft 371 kts 265°
2026-05-05 18:12 51.94350 4.12215 2992 ft 371 kts 264°
2026-05-05 18:13 51.93982 4.08012 2994 ft 377 kts 264°
2026-05-05 18:13 51.93597 4.03809 2991 ft 378 kts 264°
2026-05-05 18:13 51.93197 3.99581 2999 ft 378 kts 264°
2026-05-05 18:13 51.92793 3.95374 3009 ft 377 kts 264°
2026-05-05 18:14 51.92400 3.91399 3026 ft 337 kts 264°
2026-05-05 18:14 51.92054 3.87985 3023 ft 281 kts 264°
2026-05-05 18:14 51.91738 3.84913 2990 ft 274 kts 265°
2026-05-05 18:14 51.91442 3.81937 3772 ft 268 kts 265°
2026-05-05 18:15 51.91153 3.78866 4491 ft 281 kts 265°
2026-05-05 18:15 51.90851 3.75739 4790 ft 282 kts 265°
2026-05-05 18:15 51.90549 3.72605 4913 ft 281 kts 264°
2026-05-05 18:15 51.90248 3.69530 5442 ft 261 kts 263°
2026-05-05 18:16 51.89972 3.66611 6696 ft 269 kts 263°
2026-05-05 18:16 51.89679 3.63555 7916 ft 274 kts 263°
2026-05-05 18:16 51.89380 3.60511 9205 ft 277 kts 262°
2026-05-05 18:16 51.89074 3.57436 10744 ft 269 kts 262°
2026-05-05 18:17 51.88783 3.54558 12241 ft 256 kts 261°
2026-05-05 18:17 51.88507 3.51825 13824 ft 235 kts 261°
2026-05-05 18:17 51.88258 3.49389 15288 ft 203 kts 261°
2026-05-05 18:17 51.88002 3.46903 15254 ft 253 kts 260°
2026-05-05 18:18 51.87688 3.43891 15378 ft 289 kts 260°
2026-05-05 18:18 51.87339 3.40513 15773 ft 318 kts 260°
2026-05-05 18:18 51.86961 3.36847 16377 ft 341 kts 260°
2026-05-05 18:18 51.86560 3.32945 17078 ft 361 kts 260°
2026-05-05 18:19 51.86139 3.28853 17861 ft 378 kts 260°
2026-05-05 18:19 51.85698 3.24571 18575 ft 394 kts 260°
2026-05-05 18:19 51.85292 3.20094 19224 ft 410 kts 262°
2026-05-05 18:19 51.84944 3.15436 19928 ft 424 kts 263°
2026-05-05 18:20 51.84626 3.10671 21018 ft 425 kts 263°
2026-05-05 18:20 51.84332 3.05960 22451 ft 419 kts 263°
2026-05-05 18:20 51.84044 3.01222 23258 ft 430 kts 263°
2026-05-05 18:20 51.83743 2.96316 23628 ft 448 kts 263°
2026-05-05 18:21 51.83429 2.91213 23794 ft 460 kts 263°
2026-05-05 18:21 51.83114 2.86069 23863 ft 460 kts 263°
2026-05-05 18:21 51.82796 2.80916 23904 ft 462 kts 263°
2026-05-05 18:21 51.82477 2.75750 23911 ft 462 kts 263°
2026-05-05 18:22 51.82155 2.70576 23918 ft 462 kts 263°
2026-05-05 18:22 51.81832 2.65417 23922 ft 462 kts 263°
2026-05-05 18:22 51.81504 2.60255 23926 ft 462 kts 263°
2026-05-05 18:22 51.81172 2.55086 23926 ft 462 kts 263°
2026-05-05 18:23 51.80840 2.49929 23927 ft 462 kts 263°
2026-05-05 18:23 51.80507 2.44778 23928 ft 461 kts 263°
2026-05-05 18:23 51.80169 2.39618 23930 ft 462 kts 263°
2026-05-05 18:23 51.79828 2.34465 23933 ft 462 kts 263°
2026-05-05 18:24 51.79485 2.29312 23934 ft 461 kts 263°
2026-05-05 18:24 51.79143 2.24166 23934 ft 461 kts 263°
2026-05-05 18:24 51.78808 2.19140 23930 ft 439 kts 263°
2026-05-05 18:24 51.78478 2.14243 23932 ft 440 kts 263°
2026-05-05 18:25 51.78143 2.09319 23932 ft 442 kts 263°
2026-05-05 18:25 51.77919 2.06048 23934 ft 443 kts 263°
2026-05-05 18:25 51.77464 1.99423 23932 ft 444 kts 263°
2026-05-05 18:25 51.77124 1.94489 23934 ft 444 kts 263°
2026-05-05 18:26 51.76778 1.89517 23937 ft 445 kts 263°
2026-05-05 18:26 51.76432 1.84560 23937 ft 445 kts 263°
2026-05-05 18:26 51.76082 1.79601 23939 ft 444 kts 263°
2026-05-05 18:26 51.75742 1.74814 23939 ft 416 kts 263°
2026-05-05 18:27 51.75413 1.70198 23938 ft 415 kts 263°
2026-05-05 18:27 51.75084 1.65555 23941 ft 417 kts 263°
2026-05-05 18:27 51.74770 1.60898 23940 ft 417 kts 263°
2026-05-05 18:27 51.74465 1.56249 23943 ft 418 kts 264°
2026-05-05 18:28 51.73860 1.46917 23905 ft 415 kts 264°
2026-05-05 18:28 51.73568 1.42423 23599 ft 402 kts 264°
2026-05-05 18:28 51.73272 1.37917 22520 ft 405 kts 264°
2026-05-05 18:29 51.72976 1.33413 21446 ft 392 kts 264°
2026-05-05 18:29 51.72693 1.29108 20430 ft 389 kts 264°
2026-05-05 18:29 51.72409 1.24815 19443 ft 384 kts 264°
2026-05-05 18:29 51.72125 1.20554 18486 ft 378 kts 264°
2026-05-05 18:30 51.71845 1.16373 17445 ft 374 kts 264°
2026-05-05 18:30 51.71567 1.12243 16582 ft 364 kts 264°
2026-05-05 18:30 51.71293 1.08205 16214 ft 363 kts 264°
2026-05-05 18:30 51.71018 1.04152 16064 ft 364 kts 264°
2026-05-05 18:31 51.70747 1.00197 15727 ft 346 kts 264°
2026-05-05 18:31 51.70482 0.96337 14596 ft 343 kts 264°
2026-05-05 18:31 51.70225 0.92610 13604 ft 329 kts 264°
2026-05-05 18:31 51.69971 0.88979 12464 ft 322 kts 264°
2026-05-05 18:32 51.69717 0.85419 11345 ft 317 kts 264°
2026-05-05 18:32 51.69465 0.81920 10276 ft 312 kts 264°
2026-05-05 18:32 51.69217 0.78431 9689 ft 312 kts 265°
2026-05-05 18:32 51.68974 0.74967 9297 ft 310 kts 265°
2026-05-05 18:33 51.68737 0.71592 9084 ft 290 kts 265°
2026-05-05 18:33 51.68511 0.68426 9001 ft 285 kts 265°
2026-05-05 18:33 51.68286 0.65252 8971 ft 284 kts 265°
2026-05-05 18:33 51.68063 0.62091 8957 ft 284 kts 265°
2026-05-05 18:34 51.67838 0.58911 8950 ft 285 kts 265°
2026-05-05 18:34 51.67618 0.55751 8947 ft 284 kts 265°
2026-05-05 18:34 51.67414 0.52586 8948 ft 284 kts 266°
2026-05-05 18:34 51.67216 0.49409 8945 ft 285 kts 266°
2026-05-05 18:35 51.67022 0.46236 8944 ft 285 kts 266°
2026-05-05 18:35 51.66828 0.43067 8945 ft 285 kts 266°
2026-05-05 18:35 51.66634 0.39893 8942 ft 285 kts 266°
2026-05-05 18:35 51.66441 0.36719 8940 ft 284 kts 266°
2026-05-05 18:36 51.66247 0.33563 8955 ft 284 kts 266°
2026-05-05 18:36 51.66052 0.30405 8938 ft 275 kts 266°
2026-05-05 18:36 51.65857 0.27201 8951 ft 306 kts 266°
2026-05-05 18:36 51.65644 0.23664 8944 ft 319 kts 266°
2026-05-05 18:37 51.65434 0.20150 8942 ft 316 kts 266°
2026-05-05 18:37 51.65223 0.16627 8947 ft 317 kts 266°
2026-05-05 18:37 51.65009 0.13091 8945 ft 317 kts 266°
2026-05-05 18:37 51.64794 0.09555 8942 ft 317 kts 266°
2026-05-05 18:38 51.64581 0.06030 8943 ft 317 kts 266°
2026-05-05 18:38 51.64366 0.02503 8935 ft 316 kts 266°
2026-05-05 18:38 51.64151 -0.00993 8938 ft 316 kts 266°
2026-05-05 18:38 51.63934 -0.04556 8940 ft 331 kts 266°
2026-05-05 18:39 51.63708 -0.08319 8954 ft 339 kts 266°
2026-05-05 18:39 51.63480 -0.12069 8461 ft 340 kts 266°
2026-05-05 18:39 51.63250 -0.15816 8206 ft 333 kts 266°
2026-05-05 18:39 51.63022 -0.19521 8104 ft 333 kts 266°
2026-05-05 18:40 51.62792 -0.23232 8060 ft 333 kts 266°
2026-05-05 18:40 51.62562 -0.26948 8039 ft 333 kts 266°
2026-05-05 18:40 51.62332 -0.30680 8032 ft 337 kts 265°
2026-05-05 18:40 51.62106 -0.34360 7944 ft 333 kts 266°
2026-05-05 18:41 51.61878 -0.38070 7944 ft 334 kts 266°
2026-05-05 18:41 51.61647 -0.41832 7944 ft 333 kts 266°
2026-05-05 18:41 51.61419 -0.45518 7944 ft 321 kts 266°
2026-05-05 18:41 51.61199 -0.49007 7939 ft 312 kts 266°
2026-05-05 18:42 51.60980 -0.52474 7944 ft 312 kts 265°
2026-05-05 18:42 51.60760 -0.55943 7852 ft 310 kts 265°
2026-05-05 18:42 51.60546 -0.59328 7309 ft 305 kts 265°
2026-05-05 18:42 51.60343 -0.62440 6277 ft 259 kts 265°
2026-05-05 18:43 51.60156 -0.65239 5007 ft 248 kts 265°
2026-05-05 18:43 51.59968 -0.68047 4687 ft 254 kts 265°
2026-05-05 18:43 51.59780 -0.70848 4308 ft 246 kts 265°
2026-05-05 18:43 51.59606 -0.73318 4177 ft 220 kts 265°
2026-05-05 18:44 51.59425 -0.75791 4074 ft 217 kts 264°
2026-05-05 18:44 51.58822 -0.77885 4052 ft 207 kts 223°
2026-05-05 18:44 51.57505 -0.78712 4040 ft 210 kts 186°
2026-05-05 18:44 51.56057 -0.78916 4023 ft 208 kts 182°
2026-05-05 18:45 51.54600 -0.79048 3933 ft 212 kts 182°
2026-05-05 18:45 51.53142 -0.79145 3562 ft 203 kts 181°
2026-05-05 18:45 51.51778 -0.79219 3232 ft 192 kts 181°
2026-05-05 18:45 51.50433 -0.79285 3106 ft 193 kts 180°
2026-05-05 18:46 51.49132 -0.79025 3056 ft 189 kts 149°
2026-05-05 18:46 51.48347 -0.77460 3041 ft 181 kts 101°
2026-05-05 18:46 51.48130 -0.75592 3020 ft 160 kts 94°
2026-05-05 18:46 51.47976 -0.73796 3017 ft 164 kts 93°
2026-05-05 18:47 51.47849 -0.71978 3010 ft 164 kts 92°
2026-05-05 18:47 51.47741 -0.70145 2816 ft 165 kts 91°
2026-05-05 18:47 51.47654 -0.68322 2573 ft 164 kts 89°
2026-05-05 18:47 51.47624 -0.66502 2346 ft 162 kts 88°
2026-05-05 18:48 51.47611 -0.65313 2232 ft 161 kts 88°
2026-05-05 18:48 51.47601 -0.63509 2090 ft 161 kts 86°
2026-05-05 18:48 51.47633 -0.61705 2112 ft 164 kts 85°
2026-05-05 18:48 51.47665 -0.59905 1860 ft 161 kts 86°
2026-05-05 18:49 51.47680 -0.58122 1610 ft 160 kts 87°
2026-05-05 18:49 51.47688 -0.56354 1351 ft 159 kts 87°
2026-05-05 18:49 51.47688 -0.54571 1109 ft 158 kts 88°
2026-05-05 18:49 51.47706 -0.52791 775 ft 160 kts 86°
2026-05-05 18:50 51.47722 -0.51026 510 ft 160 kts 87°
2026-05-05 18:50 51.47747 -0.49248 237 ft 161 kts 87°
2026-05-05 18:50 51.47757 -0.47492 88 ft 148 kts 90°
2026-05-05 18:50 51.47758 -0.46229 88 ft 70 kts 90°
2026-05-05 18:51 51.47757 -0.45758 84 ft 39 kts 91°
2026-05-05 18:51 51.47684 -0.45478 88 ft 13 kts 159°
2026-05-05 18:51 51.47663 -0.45473 88 ft 0 kts 174°
2026-05-05 18:53 51.47631 -0.45474 89 ft 7 kts 192°
2026-05-05 18:53 51.47606 -0.45537 85 ft 8 kts 247°
2026-05-05 18:53 51.47595 -0.45679 86 ft 12 kts 268°
2026-05-05 18:53 51.47594 -0.45793 86 ft 9 kts 270°
2026-05-05 18:54 51.47595 -0.45982 89 ft 20 kts 270°
2026-05-05 18:54 51.47594 -0.46178 90 ft 15 kts 270°
2026-05-05 18:54 51.47595 -0.46361 90 ft 32 kts 271°
2026-05-05 18:54 51.47594 -0.46758 89 ft 34 kts 267°
2026-05-05 18:55 51.47588 -0.47109 87 ft 29 kts 271°
2026-05-05 18:55 51.47584 -0.47401 87 ft 24 kts 270°
2026-05-05 18:55 51.47582 -0.47637 88 ft 19 kts 269°
2026-05-05 18:55 51.47580 -0.47892 87 ft 29 kts 268°
2026-05-05 18:56 51.47580 -0.48138 89 ft 13 kts 271°
2026-05-05 18:56 51.47580 -0.48280 90 ft 12 kts 264°
2026-05-05 18:56 51.47491 -0.48356 89 ft 14 kts 187°
2026-05-05 18:56 51.47395 -0.48363 85 ft 15 kts 181°
2026-05-05 18:57 51.47288 -0.48408 88 ft 18 kts 211°
2026-05-05 18:57 51.47156 -0.48477 85 ft 22 kts 179°
2026-05-05 18:57 51.47008 -0.48475 85 ft 20 kts 179°
2026-05-05 18:57 51.46935 -0.48472 87 ft 4 kts 178°
2026-05-05 18:58 51.46930 -0.48471 85 ft 0 kts 178°
2026-05-05 18:58 51.46892 -0.48510 86 ft 6 kts 244°
2026-05-05 18:58 51.46887 -0.48536 87 ft 0 kts 257°
2026-05-05 18:59 51.46887 -0.48541 87 ft 7 kts 255°
2026-05-05 19:00 51.46876 -0.48639 86 ft 7 kts 265°
2026-05-05 19:00 51.46878 -0.48690 85 ft 5 kts 295°
2026-05-05 19:00 51.46901 -0.48713 86 ft 2 kts 349°
2026-05-05 19:00 51.46916 -0.48715 85 ft 1 kts 355°
2026-05-05 19:01 51.46932 -0.48717 87 ft 0 kts 354°